Hourly Weather Roundup
Issued by NWS Central Illinois

Home | Current Version | Previous Version | Text Only | Print | Product List | Glossary On
Versions: 1 2 3 4 5 6 7 8 9 10 11 12 13 14 15 16 17 18 19 20 21 22 23 24 25 26 27 28 29 30 31 32 33 34 35 36 37 38 39 40 41 42 43 44 45 46 47 48 49 50
000
NZUS43 KILX 240310
HWRILX

AREA WEATHER ROUNDUP
NATIONAL WEATHER SERVICE, LINCOLN IL
1000 PM CDT MON MAY 23 2016


CITY           SKY/WX    TMP DP  RH WIND       PRES   REMARKS
BLOOMINGTON    CLOUDY    69  50  50 SE12      29.95R
CHAMPAIGN      CLOUDY    69  46  43 SE9       29.96R
DANVILLE       PTCLDY    69  43  39 SE7       29.95R
DECATUR        CLOUDY    70  51  51 S9        29.95R
EFFINGHAM      CLOUDY    65  58  77 E5        29.98R
FLORA          CLEAR     67  58  72 SE6       29.97R
GALESBURG      PTCLDY    66  50  56 SE3       29.91R
JACKSONVILLE   CLOUDY    72  52  48 S6        29.92R
LACON          CLOUDY    64  51  61 SE3       29.90R
LAWRENCEVILLE  PTCLDY    65  54  67 SE3       29.99R
LITCHFIELD     CLOUDY    67  54  61 S6        29.95R
$$


CITY           SKY/WX    TMP DP  RH WIND       PRES   REMARKS
LINCOLN        CLOUDY    72  51  48 S3        29.92R
MACOMB         CLOUDY    67  50  54 S6        29.92R
MATTOON        CLOUDY    66  48  52 SE8       29.96R
MT CARMEL AP   PTCLDY    65  55  69 SE5       29.98R
OLNEY-NOBLE AP CLOUDY    68  50  52 SE5       29.98R
PARIS          PTCLDY    65  48  53 SE3       29.99R
PEORIA         CLOUDY    70  48  45 CALM      29.91R
PONTIAC        CLEAR     74  46  37 S13       29.94R
RANTOUL        CLEAR     70  46  42 S8        29.96R
ROBINSON       PTCLDY    60  53  76 CALM      29.99R
SPRINGFIELD    CLOUDY    73  50  44 S9        29.93R
TAYLORVILLE    CLOUDY    68  54  60 S6        29.95R
$$

...REGIONAL REPORTS...


CITY           SKY/WX    TMP DP  RH WIND       PRES   REMARKS
CHICAGO O`HARE MOCLDY    65  40  39 SE9       29.91S
KANKAKEE       PTCLDY   N/A N/A N/A S8        29.95R
MOLINE         PTCLDY    65  50  58 CALM      29.88R
MOUNT STERLING CLOUDY    66  52  60 S5        29.91R
MOUNT VERNON   CLOUDY    64  55  72 CALM      29.98R
PITTSFIELD     MOCLDY    71  53  53 S5        29.92R
QUINCY         MOCLDY    71  49  45 S8        29.90R
ROCKFORD       PTCLDY    72  47  40 S5        29.91R
$$


CITY           SKY/WX    TMP DP  RH WIND       PRES   REMARKS
BURLINGTON     CLOUDY    70  51  51 S7        29.89R
CEDAR RAPIDS   MOCLDY    68  53  58 S6        29.86R
DES MOINES     CLOUDY    69  59  70 SE7       29.84R
KIRKSVILLE     CLOUDY    66  58  75 SE8       29.90R
OTTUMWA        PTCLDY    70  53  54 S8        29.87R
ST LOUIS       CLOUDY    75  53  46 S9        29.94S
$$


CITY           SKY/WX    TMP DP  RH WIND       PRES   REMARKS
TERRE HAUTE    CLEAR     60  52  74 CALM      29.99R
EVANSVILLE     CLEAR     65  51  60 CALM      30.00R
INDIANAPOLIS   CLEAR     66  39  37 S9        30.00R
LAFAYETTE      PTCLDY    62  44  51 CALM      29.98R
MADISON        CLEAR     73  48  41 S6        29.87R
MILWAUKEE      PTCLDY    65  37  35 S8        29.91S
$$






USA.gov is the U.S. government's official web portal to all federal, state and local government web resources and services.